Billings, MT

9:02 PM MDT on July 21, 2017 (GMT -0600)
Jupiter Sulphur | | Change Station

Elev 3114 ft 45.78 °N, 108.49 °W | Updated 11 minutes ago

Clear
Clear
87.6 °F
Feels Like 84 °F
N
4.0
Wind Variable Wind from NNE
Gusts 11.0 mph

Today
High -- | Low -- °F
--% Chance of Precip.
Yesterday
High -- | Low -- °F
Precip. -- in
Pressure 29.86 in
Visibility 10.0 miles
Clouds Few 15000 ft
Heat Index 84 °F
Dew Point 35 °F
Humidity 15%
Rainfall 0.00 in
Snow Depth Not available.
5:45 AM 8:54 PM
Waning Crescent, 2% visible
METAR KBIL 220253Z 34006KT 10SM FEW150 28/M02 A2998 RMK AO2 SLP109 T02831022 53010
Pressure 29.86 in
Visibility 10.0 miles
Clouds Few 15000 ft
Heat Index 84 °F
Dew Point 35 °F
Humidity 15%
Rainfall 0.00 in
Snow Depth Not available.
5:45 AM 8:54 PM
Waning Crescent, 2% visible
METAR KBIL 220253Z 34006KT 10SM FEW150 28/M02 A2998 RMK AO2 SLP109 T02831022 53010

Get Severe Weather Alerts

Thanks for signing up!

Be on the lookout for a verification email in your inbox.

You'll start receiving the daily forecast at 6 AM.

×

10-Day Weather Forecast

Almanac

Astronomy

Jul. 21, 2017 Rise Set
Actual Time
Civil Twilight
Nautical Twilight
Astronomical Twilight
Moon
Length of Visible Light
Length of Day
Tomorrow will be .
, % of the Moon is Illuminated

Today's Extremes

State Highs State Lows

Community

WunderPhotos

Category 6

Welcome to Category 6. This is the collective home for Weather Underground's featured writeups by Dr. Jeff Masters (right), Bob Henson (left), Chris Burt, and other regular contributors.

Nearby

Air Quality

  Air Quality AQ Index Pollutant
Not available.

Snow Depth

Station Depth Elevation

Earthquake Activity

City Distance Mag. Time & Date
Minimum magnitude displayed is 2.5.

Coastal Water Temperatures

Place Temperature

Stations

Nearby Weather Stations

Station Location Temp. Windchill Dew Point Humidity Wind Precip. Elev Updated Type
                   

Watches & Warnings

There are currently no watches in effect.